N0NAI-13 Weather Reports


time (UTC)temp
F
wind
direction
speed
knots
gust
knots
rain 1hr
in
rain 24hr
in
rain mn
in
humidity
%
barometer
mb
20260503005516 61 315 0.0 2.6 0.00 1.11 1.11 39 1014.8
20260503004520 62 270 0.9 2.6 0.00 1.11 1.11 39 1014.8
20260503003522 62 273 0.9 2.6 0.00 1.11 1.11 38 1014.8
20260503002526 62 267 1.7 2.6 0.00 1.11 1.11 38 1014.8
20260503001529 63 273 1.7 4.3 0.00 1.11 1.11 37 1015.0
20260503000531 64 248 0.9 2.6 0.00 1.11 1.11 37 1015.0
20260502235516 64 312 0.9 2.6 0.00 1.11 1.11 35 1015.3
20260502234519 64 304 2.6 5.2 0.00 1.11 1.11 35 1015.3
20260502233523 66 280 1.7 3.5 0.00 1.11 1.11 34 1015.4
20260502232526 67 282 2.6 4.3 0.00 1.11 1.11 32 1015.5
20260502231528 69 303 4.3 8.7 0.00 1.11 1.11 30 1015.5
20260502230531 70 259 2.6 5.2 0.00 1.11 1.11 30 1015.6
20260502225516 70 318 3.5 4.3 0.00 1.11 1.11 30 1015.7
20260502224519 70 259 3.5 7.0 0.00 1.11 1.11 29 1015.8
20260502223522 68 263 2.6 5.2 0.00 1.11 1.11 31 1015.8
20260502222519 68 299 2.6 5.2 0.00 1.11 1.11 32 1015.9
20260502221516 70 330 4.3 7.8 0.00 1.11 1.11 30 1015.9
20260502220530 70 307 2.6 7.0 0.00 1.11 1.11 31 1016.1
20260502215515 68 273 1.7 2.6 0.00 1.11 1.11 31 1016.3
20260502214518 68 276 2.6 4.3 0.00 1.11 1.11 32 1016.4
20260502213521 69 288 4.3 5.2 0.00 1.11 1.11 30 1016.4
20260502212524 69 229 3.5 8.7 0.00 1.11 1.11 31 1016.5
20260502211526 69 244 3.5 5.2 0.00 1.11 1.11 31 1016.7
20260502210528 67 310 3.5 6.1 0.00 1.11 1.11 32 1017.0
20260502205531 67 272 2.6 4.3 0.00 1.11 1.11 32 1017.2
20260502204517 66 285 2.6 6.1 0.00 1.11 1.11 32 1017.3
20260502203519 65 247 3.5 6.1 0.00 1.11 1.11 32 1017.5
20260502202522 65 283 2.6 5.2 1.11 1.11 1.11 32 1017.6
20260502201525 63 271 1.7 4.3 1.11 1.11 1.11 33 1017.7
20260502200528 65 240 2.6 4.3 1.11 1.11 1.11 33 1017.9
20260502195531 66 341 2.6 7.0 1.11 1.11 1.11 33 1018.3
20260502194516 65 290 3.5 6.1 1.11 1.11 1.11 34 1018.3
20260502193519 64 295 3.5 7.0 1.11 1.11 1.11 34 1018.4
20260502192521 66 219 2.6 4.3 0.00 0.00 0.00 34 1018.5
20260502191518 65 245 3.5 7.0 0.00 0.00 0.00 33 1018.9
20260502190515 65 287 5.2 7.8 0.00 0.00 0.00 33 1019.1
20260502185530 64 306 3.5 7.8 0.00 0.00 0.00 34 1019.2
20260502184533 64 281 4.3 6.1 0.00 0.00 0.00 34 1019.4
20260502183518 64 292 2.6 5.2 0.00 0.00 0.00 35 1019.5
20260502182520 64 305 3.5 6.1 0.00 0.00 0.00 34 1019.5
20260502181524 64 264 2.6 5.2 0.00 0.00 0.00 35 1019.7
20260502180527 63 215 2.6 4.3 0.00 0.00 0.00 35 1019.7
20260502163517 60 276 3.5 4.3 0.00 0.00 0.00 35 1020.7
20260502162520 60 278 3.5 6.1 0.00 0.00 0.00 38 1020.8
20260502161523 61 256 3.5 5.2 0.00 0.00 0.00 37 1020.8
20260502160519 58 243 2.6 3.5 0.00 0.00 0.00 39 1021.0
20260502151522 58 339 3.5 5.2 0.00 0.00 0.00 42 1021.0
20260502150525 57 313 4.3 7.8 0.00 0.00 0.00 41 1021.2
20260502130522 35 304 0.0 0.9 0.00 0.00 0.00 99 1021.7
20260502123531 30 0.0 0.0 0.00 0.00 0.00 99 1021.7
20260502122516 29 0.0 0.0 0.00 0.00 0.00 99 1021.7
20260502121519 28 0.0 0.0 0.00 0.00 0.00 99 1021.9
20260502120522 27 0.0 0.0 0.00 0.00 0.00 99 1021.7
20260502115525 27 0.0 0.0 0.00 0.00 0.00 99 1021.7
20260502114528 26 0.0 0.0 0.00 0.00 0.00 99 1021.6
20260502113531 26 0.0 0.0 0.00 0.00 0.00 99 1021.5
20260502112516 26 0.0 0.0 0.00 0.00 0.00 99 1021.5
20260502111519 26 0.0 0.0 0.00 0.00 0.00 99 1021.5
20260502110522 26 0.0 0.0 0.00 0.00 0.00 99 1021.5
20260502105525 26 0.0 0.0 0.00 0.00 0.00 99 1021.5
20260502104528 26 0.0 0.0 0.00 0.00 0.00 99 1021.5
20260502103531 26 0.0 0.0 0.00 0.00 0.00 99 1021.5
20260502102515 26 0.0 0.0 0.00 0.00 0.00 99 1021.5
20260502101518 26 0.0 0.0 0.00 0.00 0.00 99 1021.5
20260502100521 26 0.0 0.0 0.00 0.00 0.00 99 1021.5
20260502091518 27 0.0 0.0 0.00 0.00 0.00 99 1021.5
20260502090520 27 0.0 0.0 0.00 0.00 0.00 99 1021.4
20260502071532 29 0.0 0.0 0.00 0.00 0.00 92 1021.7
20260502070517 29 0.0 0.0 0.00 0.00 0.00 92 1021.7
20260502065520 30 0.0 0.0 0.00 0.00 0.00 92 1021.7
20260502064523 30 0.0 0.0 0.00 0.00 0.00 90 1021.7
20260502063520 30 0.0 0.0 0.00 0.00 0.00 90 1021.7
20260502062517 30 0.0 0.0 0.00 0.00 0.00 89 1021.7
20260502061532 30 0.0 0.0 0.00 0.00 0.00 88 1021.7
20260502060517 30 0.0 0.0 0.00 0.00 0.00 85 1021.7
20260502055520 31 0.0 0.0 0.00 0.00 0.00 84 1021.7
20260502054523 31 0.0 0.0 0.00 0.00 0.00 84 1021.7
20260502053526 31 0.0 0.0 0.00 0.00 0.00 82 1021.7
20260502052529 32 0.0 0.0 0.00 0.00 0.00 82 1021.7
20260502051532 31 0.0 0.0 0.00 0.00 0.00 81 1021.7
20260502050517 32 0.0 0.0 0.00 0.00 0.00 80 1021.5
20260502045519 32 0.0 0.0 0.00 0.00 0.00 79 1021.5
20260502044522 32 0.0 0.0 0.00 0.00 0.00 78 1021.4
20260502043525 33 0.0 0.0 0.00 0.00 0.00 76 1021.4
20260502042528 33 0.0 0.0 0.00 0.00 0.00 76 1021.5
20260502041531 34 0.0 0.0 0.00 0.00 0.00 74 1021.5
20260502040518 34 0.0 0.0 0.00 0.00 0.00 73 1021.5
20260502035518 35 0.0 0.0 0.00 0.00 0.00 72 1021.5
20260502034521 36 0.0 0.0 0.00 0.00 0.00 71 1021.5
20260502033524 37 0.0 0.0 0.00 0.00 0.00 71 1021.5
20260502032521 37 0.0 0.0 0.00 0.00 0.00 67 1021.4
20260502031518 38 0.0 0.0 0.00 0.00 0.00 65 1021.4
20260502030533 39 0.0 0.0 0.00 0.00 0.00 65 1021.4
20260502025518 39 0.0 0.0 0.00 0.00 0.00 63 1021.2
20260502024521 40 0.0 0.0 0.00 0.00 0.00 60 1021.2
20260502023524 40 0.0 0.0 0.00 0.00 0.00 61 1021.2
20260502022527 41 0.0 0.0 0.00 0.00 0.00 58 1021.2
20260502021530 42 0.0 0.0 0.00 0.00 0.00 55 1021.2
20260502020533 42 0.0 0.0 0.00 0.00 0.00 54 1021.0
20260502015518 43 0.0 0.0 0.00 0.00 0.00 57 1020.8
20260502014520 43 0.0 0.0 0.00 0.00 0.00 56 1020.8
20260502013523 44 0.0 0.0 0.00 0.00 0.00 52 1020.7
20260502012526 45 0.0 0.0 0.00 0.00 0.00 52 1020.7
20260502011529 46 0.0 0.0 0.00 0.00 0.00 48 1020.6
20260502010532 48 0.0 0.0 0.00 0.00 0.00 43 1020.5